Regional Weather Roundup
Issued by NWS New Orleans/Baton Rouge, LA

Home | Current Version | Previous Version | Text Only | Print | Product List | Glossary Off
Versions: 1 2 3 4 5 6 7 8 9 10 11 12 13 14 15 16 17 18 19 20 21 22 23 24 25 26 27 28 29 30 31 32 33 34 35 36 37 38 39 40 41 42 43 44 45 46 47 48 49 50

485
ASUS44 KLIX 310305
RWRLIX
NEW ORLEANS REGIONAL WEATHER ROUNDUP
NATIONAL WEATHER SERVICE NEW ORLEANS LA
1000 PM CDT THU OCT 30 2014

NOTE: "FAIR" INDICATES FEW OR NO CLOUDS BELOW 12,000 FEET WITH NO
      SIGNIFICANT WEATHER AND/OR OBSTRUCTIONS TO VISIBILITY.
      SKY/WX - SKY CONDITION AND SIGNIFICANT WEATHER.
      TMP - AIR TEMPERATURE.     DP    - DEWPOINT TEMPERATURE.
      RH  - RELATIVE HUMIDITY.   PRES  - PRESSURE.
      HI  - HEAT INDEX.          WCI   - WIND CHILL INDEX.

*  THESE STATIONS ARE NOT NWS OR FAA STATIONS AND ARE NOT UNDER
   NWS QUALITY CONTROL.

LAZ038-040-048-061>063-065>067-069-310400-
SOUTHEAST LOUISIANA

CITY           SKY/WX    TMP DP  RH WIND       PRES   REMARKS
N.O. AUDUBON     N/A     61  53  75 MISG        N/A
N.O. INTL ARPT CLEAR     58  49  72 NW3       30.05S
N.O. LAKEFRONT CLEAR     69  45  41 N12       30.05S
N.O. DOWNTOWN*   N/A     68  43  40 N5        30.06S
SLIDELL        CLEAR     51  47  86 CALM      30.05R
BATON ROUGE    CLEAR     53  49  86 CALM      30.06S
BOOTHVILLE     CLEAR     61  54  77 NW3       30.04S
BELLE CHASSE   CLEAR     52  48  86 CALM      30.05R
BOGALUSA*        N/A     50  46  83 CALM      30.07S
NEW ROADS*       N/A     53  48  85 CALM      30.07S
GONZALES*        N/A     53  52  98 CALM      30.06S
HAMMOND*       CLEAR     52  46  82 CALM      30.07S
HOUMA*         CLEAR     55  51  86 NW3       30.06S
PORT FOURCHON* CLEAR     66  52  59 N6        30.09R

$$

MSZ070-080>082-310400-
SOUTHERN MISSISSIPPI

CITY           SKY/WX    TMP DP  RH WIND       PRES   REMARKS
MCCOMB         CLEAR     52  45  77 CALM      30.06S
GULFPORT       CLEAR     53  46  77 CALM      30.04R
BILOXI         CLEAR     62  44  53 N2        30.04R
PASCAGOULA     CLEAR     44  43  96 CALM      30.04R

$$

COASTAL OBSERVATIONS
LAKE AND NEARSHORE STATIONS

STATION/POSITION TIME  TEMP    WIND        PRES    WAVE
                       AIR SEA DIR/SP/G            HT/PER
                 (UTC) (F)     (DEG/KT/KT) (MB)    (FT/S)
PASCAGOULA       0200          340/  5/  5   N/A
WAVELAND YACHT   0200          360/  9/ 10   N/A
SHELL BEACH      0200           10/ 10/ 11   N/A

OFFSHORE STATIONS

STATION/POSITION TIME  TEMP    WIND        PRES    WAVE
                       AIR SEA DIR/SP/G            HT/PER
                 (UTC) (F)     (DEG/KT/KT) (MB)    (FT/S)
64 S DAUPHIN ISL 0225   71 78  350/ 16/ 17 1016.8    3/ 6

$$




USA.gov is the U.S. government's official web portal to all federal, state and local government web resources and services.